User: anonymous
Location: Caltech
(34.1382°N, 118.1253°W)
Time: 13:28:03
(UTC-07:00)
Language:

Iridium 94 - Orbit

View from above orbital plane
View from above orbital plane
View from above satellite
View from above satellite

Ground track
Ground track

The orbit data is extracted from the following two-line orbital elements,

1 27374U 02005C   14209.45048641  .00000284  00000-0  94506-4 0  5839
2 27374 086.3997 336.6001 0000881 209.4012 216.9586 14.34217189664778
Epoch (UTC): 28 July 2014 10:48:42
Eccentricity: 0.0000881
inclination: 86.3997°
perigee height: 777 km
apogee height: 778 km
right ascension of ascending node: 336.6001°
argument of perigee: 209.4012°
revolutions per day: 14.34217189
mean anomaly at epoch: 216.9586°
orbit number at epoch: 66477

The dashed part of the orbit path shows where the satellite is in the earth's shadow,  

DLR